Hourly Data Report for October 30, 2016

All times are specified in Local Standard Time (LST). Add 1 hour to adjust for Daylight Saving Time where and when it is observed.

GRISE FIORD CLIMATE
NUNAVUT

76°25'22.040" N
82°54'08.020" W
44.50 m
2402351
71971
NGC

Download Data

Hourly Data (October 2016)
Hourly Data Report for October 30, 2016
Temp Definition
°C
Dew Point Temp Definition
°C
Rel Hum Definition
%
Wind Dir Definition
10's deg

Wind Spd Definition
km/h
Visibility Definition
km
Stn Press Definition
kPa
Hmdx Definition


Wind Chill Definition


Weather Definition


TIME
00:00 -19.1 -22.9 72 7 1   101.65   -20 LegendNANA
01:00 -17.4 -21.3 72 12 10   101.64   -24 LegendNANA
02:00 -20.2 -24.8 67 4 5   101.61   -25 LegendNANA
03:00 -20.0 -23.8 71 5 9   101.58   -27 LegendNANA
04:00 -20.0 -23.1 76 9 5   101.56   -24 LegendNANA
05:00 -19.1 -23.7 67 11 8   101.56   -25 LegendNANA
06:00 -20.8 -24.8 70 11 8   101.55   -27 LegendNANA
07:00 -18.8 -20.5 87 27 2   101.53   -20 LegendNANA
08:00 -20.8 -24.4 73 4 7   101.51   -27 LegendNANA
09:00 -20.1 -23.0 78 4 3   101.49   -23 LegendNANA
10:00 -19.6 -21.8 83 5 5   101.46   -24 LegendNANA
11:00 -19.3 -21.5 82 4 4   101.43   -23 LegendNANA
12:00 -19.0 -22.0 77 4 8   101.40   -25 LegendNANA
13:00 -20.8 -23.8 77 4 6   101.40   -26 LegendNANA
14:00 -20.6 -24.2 73 4 5   101.40   -25 LegendNANA
15:00 -20.3 -22.9 79 5 7   101.39   -26 LegendNANA
16:00 -19.5 -21.0 88 12 5   101.38   -24 LegendNANA
17:00 -20.7 -24.0 75 9 4   101.38   -24 LegendNANA
18:00 -20.6 -23.1 80 9 3   101.38   -23 LegendNANA
19:00 -20.4 -23.5 76 2 4   101.38   -24 LegendNANA
20:00 -19.9 -23.7 72 36 4   101.38   -23 LegendNANA
21:00 -20.6 -22.4 85 11 2   101.35   -22 LegendNANA
22:00 -20.8 -23.1 82 4 6   101.33   -26 LegendNANA
23:00 -22.1 -24.4 82 5 4   101.30   -26 LegendNANA

Notes on Data Quality.

Legend

  • E = Estimated
  • M = Missing
  • NA = Not Available
  • ‡ = Partner data that is not subject to review by the National Climate Archives
Date modified: